This demonstration page uses our WeatherBlox Daily Observations layout. Learn more.

Left ArrowRight Arrow

Hourly Observations for May 14, 2021

Temp ( °F °C ) Dew Point ( °F °C ) Humidity (%) Winds ( mph kmh ) Pressure ( in mb ) Visibility ( mi km ) Precip ( " mm )
12:53 am 00:53 Clear 53 11.7 50 10 89 89 Calm 30.23 1024 10 16 0.00 0.00
1:53 am 01:53 Mostly Clear 51 10.6 48 8.9 89 89 Calm 30.22 1023 10 16 0.00 0.00
2:53 am 02:53 Mostly Clear 50 10 48 8.9 93 93 Calm 30.21 1023 10 16 0.00 0.00
3:53 am 03:53 Cloudy 51 10.6 48 8.9 89 89 Calm 30.21 1023 10 16 0.00 0.00
4:53 am 04:53 Mostly Cloudy 50 10 48 8.9 93 93 Calm 30.22 1023 10 16 0.00 0.00
5:53 am 05:53 Cloudy 50 10 47 8.3 89 89 Calm 30.24 1024 10 16 0.00 0.00
6:53 am 06:53 Mostly Sunny 49 9.4 47 8.3 93 93 Calm 30.25 1024 10 16 0.00 0.00
7:53 am 07:53 Sunny 52 11.1 50 10 93 93 Calm 30.27 1025 10 16 0.00 0.00
8:53 am 08:53 Sunny 59 15 51 10.6 75 75 NNE 3 6 30.28 1025 10 16 0.00 0.00
9:53 am 09:53 Sunny 64 17.8 45 7.2 50 50 VRB 3 6 30.28 1025 10 16 0.00 0.00
10:53 am 10:53 Sunny 67 19.4 42 5.6 41 41 undefined N/A 30.27 1025 10 16 0.00 0.00
11:53 am 11:53 Sunny 68 20 40 4.4 36 36 VRB 6 9 30.27 1025 10 16 0.00 0.00
12:53 pm 12:53 Mostly Sunny 69 20.6 39 3.9 33 33 VRB 5 7 30.26 1025 10 16 0.00 0.00
1:53 pm 13:53 Mostly Sunny 72 22.2 39 3.9 30 30 VRB 5 7 30.24 1024 10 16 0.00 0.00
2:53 pm 14:53 Partly Cloudy 70 21.1 38 3.3 31 31 VRB 3 6 30.23 1024 10 16 0.00 0.00
3:53 pm 15:53 Mostly Cloudy 73 22.8 40 4.4 30 30 NE 5 7 30.22 1023 10 16 0.00 0.00
4:53 pm 16:53 Mostly Cloudy 73 22.8 39 3.9 29 29 VRB 3 6 30.19 1023 10 16 0.00 0.00
5:53 pm 17:53 Partly Cloudy 73 22.8 38 3.3 28 28 SSE 3 6 30.19 1022 10 16 0.00 0.00
6:53 pm 18:53 Mostly Sunny 71 21.7 39 3.9 31 31 W 5 7 30.19 1022 10 16 0.00 0.00
7:27 pm 19:27 Partly Cloudy 71 21.7 39 3.9 31 31 W 3 6 30.16 1021 10 16 0.00 0.00
7:53 pm 19:53 Mostly Sunny 71 21.7 40 4.4 32 32 W 3 6 30.19 1022 10 16 0.00 0.00
8:53 pm 20:53 Clear 67 19.4 44 6.7 44 44 SSE 3 6 30.20 1023 10 16 0.00 0.00
9:53 pm 21:53 Partly Cloudy 60 15.6 49 9.4 67 67 Calm 30.21 1023 10 16 0.00 0.00
10:53 pm 22:53 Clear 56 13.3 51 10.6 84 84 Calm 30.23 1024 10 16 0.00 0.00
11:53 pm 23:53 Clear 55 12.8 50 10 83 83 Calm 30.23 1024 10 16 0.00 0.00

Powered by AerisWeather